Tracking 30692 objects as of 16-Jun-2025
HD Live streaming from Space Station
objects crossing your sky now

STARLINK-32599

Track STARLINK-32599 now!
10-day predictions
STARLINK-32599 is classified as:


NORAD ID: 62048
Int'l Code: 2024-216S
Perigee: 488.0 km
Apogee: 492.3 km
Inclination: 43.0 °
Period: 94.3 minutes
Semi major axis: 6861 km
RCS: Unknown
Launch date: November 21, 2024
Source: United States (US)
Launch site: AIR FORCE EASTERN TEST RANGE (AFETR)
Your satellite tracking list
Your tracking list is empty




NASA's NSSDC Master Catalog

Two Line Element Set (TLE):
1 62048U 24216S   25167.45140946  .00017291  00000-0  63601-3 0  9998
2 62048  43.0048 327.1892 0003126 273.2246  86.8248 15.27596729 33073
Source of the keplerian elements: AFSPC